TimeCST,TemperatureF,Dew PointF,Humidity,Sea Level PressureIn,VisibilityMPH,Wind Direction,Wind SpeedMPH,Gust SpeedMPH,PrecipitationIn,Events,Conditions,WindDirDegrees,DateUTC
12:53 AM,28.9,23.0,78,30.08,10.0,SSW,4.6,-,N/A,,Clear,200,2011-11-11 06:53:00
1:53 AM,28.9,23.0,78,30.06,10.0,South,4.6,-,N/A,,Mostly Cloudy,180,2011-11-11 07:53:00
2:53 AM,28.0,21.0,75,30.04,10.0,South,6.9,-,N/A,,Clear,180,2011-11-11 08:53:00
3:53 AM,27.0,21.0,78,30.00,10.0,SSE,6.9,-,N/A,,Clear,160,2011-11-11 09:53:00
4:53 AM,28.4,21.2,74,29.95,10.0,South,9.2,-,N/A,,Clear,170,2011-11-11 10:53:00
5:53 AM,28.4,19.4,69,29.92,10.0,South,11.5,-,N/A,,Clear,180,2011-11-11 11:53:00
6:53 AM,30.9,19.9,64,29.93,10.0,South,12.7,-,N/A,,Clear,170,2011-11-11 12:53:00
7:53 AM,33.8,19.4,56,29.88,10.0,SSE,13.8,-,N/A,,Clear,160,2011-11-11 13:53:00
8:53 AM,35.6,21.2,56,29.85,10.0,SSE,15.0,24.2,N/A,,Clear,160,2011-11-11 14:53:00
9:53 AM,42.8,24.8,49,29.81,10.0,SSE,17.3,-,N/A,,Clear,150,2011-11-11 15:53:00
10:53 AM,43.0,26.1,51,29.81,10.0,SSE,15.0,-,N/A,,Clear,160,2011-11-11 16:53:00
11:53 AM,48.9,28.9,46,29.78,10.0,South,11.5,-,N/A,,Clear,190,2011-11-11 17:53:00
12:53 PM,52.0,30.9,45,29.75,10.0,South,13.8,-,N/A,,Clear,190,2011-11-11 18:53:00
1:53 PM,55.0,32.0,42,29.74,10.0,SW,13.8,-,N/A,,Clear,220,2011-11-11 19:53:00
2:53 PM,55.9,33.1,42,29.74,10.0,SW,11.5,-,N/A,,Clear,230,2011-11-11 20:53:00
3:53 PM,54.0,34.0,47,29.75,10.0,WSW,8.1,-,N/A,,Clear,240,2011-11-11 21:53:00
4:53 PM,50.0,32.0,50,29.75,10.0,SSW,6.9,-,N/A,,Clear,210,2011-11-11 22:53:00
5:53 PM,46.0,33.1,61,29.76,10.0,SSW,10.4,-,N/A,,Clear,210,2011-11-11 23:53:00
6:53 PM,46.0,33.1,61,29.76,10.0,SSW,9.2,-,N/A,,Clear,210,2011-11-12 00:53:00
7:53 PM,45.0,33.1,63,29.75,10.0,SSW,6.9,-,N/A,,Clear,200,2011-11-12 01:53:00
8:53 PM,43.0,33.1,68,29.76,10.0,SSW,6.9,-,N/A,,Clear,210,2011-11-12 02:53:00
9:53 PM,43.0,33.1,68,29.77,10.0,SW,8.1,-,N/A,,Clear,220,2011-11-12 03:53:00
10:53 PM,42.1,33.1,70,29.75,10.0,SW,5.8,-,N/A,,Clear,230,2011-11-12 04:53:00
11:53 PM,43.0,33.1,68,29.74,10.0,SSW,8.1,-,N/A,,Clear,210,2011-11-12 05:53:00